[[{"header":{"parameterUnit":"m.s-1","parameterCategory":1,"la1":30.2991,"la2":30.254,"lo1":-89.0895,"lo2":-89.0444,"dy":0.0017,"dx":0.0017,"nx":28,"ny":28,"refTime":"2024-07-16T09:00:00:Z","depth":0,"parameterNumber":2,"parameterNumberName":"U-component_of_WINDS"},"data":[0,0,0,0,0,0,0,0,0,0,0,0,0,0,0,0,0,0,0,0,0,0,0,0,0,0,0,0,0,0,0,0,0,0,0,0,0,0,0,0,0,0,0,0,0,0,0,0,0,0,0,0,0,0,0,0,0,0,0.9483,0.9484,0,0.9608,0.961,0.9611,0.9656,0.9656,0.9655,0.9655,0.9785,0.9789,0.9792,0,0,0,0,0,0,0,0,0,0,0,0,0,0.9281,0.9284,0.9482,0.9484,0.9486,0.9608,0.961,0.9612,0.9656,0.9656,0.9655,0.9655,0.9783,0.9788,0.9793,0,0,0,0,0,0,0,0,0,0,0,0,0,0.9384,0.9285,0.9482,0.9523,0.9528,0.9608,0.961,0.9612,0.9656,0.9656,0.9655,0.9654,0.9782,0.9788,0.9793,0.9843,0,0,0.9811,0.9814,0,0,0,0,0,0,0,0,0.9378,0.9391,0.9515,0.952,0.9526,0.9616,0.9586,0.9689,0.9657,0.9608,0.9655,0.9654,0.9729,0.9739,0.9764,0.9849,0.9854,0.9812,0.9815,0.9818,0.9819,0,0,0,0,0,0,0,0.9371,0.9386,0.9532,0.9517,0.9523,0.9534,0.9548,0.9606,0.9671,0.9612,0.9615,0.9629,0.9732,0.9759,0.9768,0.9856,0.9811,0.9817,0.982,0.9823,0.9986,0.9986,0,0,0,0,0,0,0.9357,0.938,0.9528,0.9536,0.9448,0.9539,0.9554,0.9588,0.967,0.9682,0.963,0.9631,0.9749,0.9761,0.9773,0.9835,0.9818,0.9823,0.9826,0.9985,0.9986,0.9987,0,0,0,0,0,0,0.9352,0.9369,0.9523,0.9459,0.9479,0.9543,0.958,0.959,0.9617,0.9684,0.9696,0.9645,0.9749,0.9764,0.9824,0.984,0.9826,0.9831,0.9984,0.9985,0.9986,0.9959,0,0,0,0,0,0,0.9346,0.9368,0.9387,0.9459,0.9483,0.9573,0.9581,0.9593,0.9627,0.963,0.9702,0.9713,0.975,0.9815,0.983,0.9847,0.9836,0.9983,0.9984,0.9986,0.9959,0.996,0.996,0,0,0,0,0,0.9339,0.9375,0.9388,0.9406,0.9508,0.9574,0.9587,0.9629,0.9628,0.9648,0.9691,0.9711,0.9836,0.9821,0.9838,0.9857,0.9982,0.9984,0.9986,0.9959,0.996,0.996,0,0,0,0,0,0,0.9305,0.9386,0.9401,0.9462,0.951,0.9581,0.9608,0.9628,0.9679,0.9679,0.9729,0.9745,0.98,0.9835,0.9818,0.9909,0.991,0.9915,0.9884,0.9885,0.9885,0.9875,0.984,0,0,0,0,0,0.9304,0.9351,0.9419,0.9466,0.949,0.9544,0.9575,0.9602,0.9655,0.9676,0.9723,0.9773,0.9824,0.9857,0.9907,0.9964,0.998,0.9986,0.9986,0.9986,0.999,1.0021,1.0024,0.9993,0.9993,0.9993,0,0,0.9304,0.9354,0.938,0.946,0.9501,0.9548,0.9562,0.9611,0.9645,0.9684,0.9743,0.9779,0.9838,0.9897,0.9925,0.9927,1.0002,0.9988,0.9988,0.9992,1.0024,1.0027,1.0029,0.9994,0.9994,0.9994,0,0,0.9327,0.937,0.9413,0.9453,0.9515,0.9551,0.9561,0.9628,0.9653,0.9713,0.9742,0.9784,0.9871,0.9912,0.9944,0.9979,0.9999,0.9995,0.9996,1.0026,1.0029,1.0031,1.0043,1.0047,0.9998,0.9998,0.9998,0,0.9319,0.939,0.9432,0.9479,0.9513,0.9548,0.9592,0.9629,0.9704,0.9727,0.9728,0.9836,0.9879,0.9947,0.9955,0.998,0.9993,0.9987,1.0025,1.0028,1.0031,1.0042,1.0047,0.9997,0.9997,0.9998,0.9998,0,0.9376,0.9425,0.9452,0.9522,0.9559,0.9604,0.9653,0.9685,0.9709,0.9744,0.9804,0.9856,0.9917,0.9935,0.996,1.0006,1.0005,1.0015,1.0018,1.0032,1.0044,1.0049,0.9996,0.9996,0.9996,0.9997,0,0,0.9382,0.9474,0.9483,0.9514,0.9584,0.9622,0.9668,0.9727,0.9753,0.9803,0.9842,0.9914,0.9923,0.9959,0.9988,1.0014,1.0038,1.0021,1.0023,1.0021,1.0091,1.0082,1.0087,1.0051,1.0052,1.0053,1.0085,0,0.9413,0.9497,0.9535,0.9601,0.9646,0.9679,0.9719,0.9766,0.9799,0.9842,0.988,0.9929,0.9938,0.996,0.9988,1.0029,1.0052,1.0027,1.0088,1.0089,1.0071,1.0093,1.0085,1.0113,1.009,1.0091,1.0092,0,0.9461,0.951,0.958,0.9642,0.9662,0.9697,0.9753,0.9794,0.9847,0.987,0.9909,0.9936,0.9985,0.9984,1.0052,1.0034,1.0061,1.0085,1.0087,1.0094,1.0091,1.01,1.0123,1.0127,1.01,1.0099,1.0098,0,0.9457,0.954,0.9592,0.9618,0.9693,0.9716,0.9748,0.9801,0.9833,0.9882,0.9903,0.9957,0.9986,1.0028,1.0069,1.0064,1.0132,1.0135,1.0152,1.0151,1.0165,1.0163,1.0192,1.0183,1.0183,1.0183,1.0183,0,0.9487,0.9528,0.9591,0.9623,0.9669,0.9713,0.9758,0.9793,0.9839,0.9878,0.9911,0.9946,0.9999,1.0041,1.0074,1.0124,1.0138,1.0157,1.0165,1.0154,1.0151,1.0172,1.0171,1.0184,1.0184,1.0183,1.0183,0,0.949,0.9534,0.9592,0.9657,0.9675,0.9706,0.9762,0.9794,0.9829,0.9878,0.9892,0.9947,0.9998,1.0043,1.0112,1.0133,1.0185,1.0195,1.0166,1.0171,1.0185,1.0183,1.0228,1.0235,1.0222,1.0222,1.0222,0,0.9506,0.9539,0.9606,0.9634,0.9665,0.9711,0.9743,0.9787,0.9819,0.9881,0.9905,0.9959,1.0004,1.0085,1.0131,1.0183,1.0195,1.0207,1.0203,1.019,1.0194,1.0191,1.0194,1.0207,1.0206,1.0206,1.0206,0,0.953,0.9549,0.9594,0.9647,0.9684,0.9728,0.9772,0.9793,0.9845,0.988,0.9932,0.9967,1.0036,1.0089,1.0146,1.0179,1.0201,1.0207,1.0214,1.0202,1.0184,1.0193,1.0166,1.0206,1.0206,1.0206,1.0206,1.0206,0.954,0.9569,0.9621,0.9669,0.9707,0.9747,0.978,0.9818,0.9863,0.9922,0.9945,0.9998,1.0049,1.0128,1.0161,1.0203,1.0207,1.0217,1.0219,1.0221,1.0218,1.0177,1.0214,1.0214,1.0214,1.0214,1.0214,0,0.9564,0.9598,0.9643,0.9703,0.9741,0.9757,0.9807,0.9838,0.9884,0.9929,0.9973,1.0032,1.0083,1.0132,1.0186,1.021,1.0221,1.0222,1.0221,1.0228,1.0212,1.0201,1.0212,1.0212,1.0212,1.0212,1.0212,1.0212,0.9581,0.9631,0.9656,0.9725,0.9759,0.9811,0.9838,0.9875,0.9911,0.9976,1.0018,1.0049,1.0096,1.0153,1.02,1.0213,1.0231,1.0229,1.0245,1.023,1.0229,1.0229,1.0218,1.0233,1.0233,1.0257,1.0257,1.0258]},{"header":{"parameterUnit":"m.s-1","parameterCategory":1,"la1":30.2991,"la2":30.254,"lo1":-89.0895,"lo2":-89.0444,"dy":0.0017,"dx":0.0017,"nx":28,"ny":28,"refTime":"2024-07-16T09:00:00:Z","depth":0,"parameterNumber":3,"parameterNumberName":"V-component_of_WINDS"},"data":[0,0,0,0,0,0,0,0,0,0,0,0,0,0,0,0,0,0,0,0,0,0,0,0,0,0,0,0,0,0,0,0,0,0,0,0,0,0,0,0,0,0,0,0,0,0,0,0,0,0,0,0,0,0,0,0,0,0,-0.5956,-0.5955,0,-0.5891,-0.5891,-0.589,-0.5864,-0.5864,-0.5865,-0.5865,-0.5796,-0.5794,-0.5792,0,0,0,0,0,0,0,0,0,0,0,0,0,-0.6056,-0.6054,-0.5956,-0.5955,-0.5955,-0.5891,-0.5891,-0.589,-0.5864,-0.5864,-0.5865,-0.5865,-0.5796,-0.5794,-0.5792,0,0,0,0,0,0,0,0,0,0,0,0,0,-0.6004,-0.6054,-0.5956,-0.5934,-0.5932,-0.5892,-0.5891,-0.5889,-0.5864,-0.5864,-0.5865,-0.5865,-0.5797,-0.5794,-0.5791,-0.5768,0,0,-0.5782,-0.5781,0,0,0,0,0,0,0,0,-0.6007,-0.6,-0.5938,-0.5936,-0.5933,-0.5886,-0.59,-0.5848,-0.5864,-0.589,-0.5865,-0.5865,-0.5825,-0.582,-0.5807,-0.5764,-0.5761,-0.5782,-0.578,-0.5779,-0.5778,0,0,0,0,0,0,0,-0.6011,-0.6003,-0.593,-0.5937,-0.5934,-0.5927,-0.592,-0.589,-0.5857,-0.5888,-0.5886,-0.5878,-0.5824,-0.581,-0.5806,-0.576,-0.5782,-0.5779,-0.5777,-0.5776,-0.5695,-0.5694,0,0,0,0,0,0,-0.6018,-0.6006,-0.5932,-0.5928,-0.5971,-0.5925,-0.5917,-0.5901,-0.5857,-0.5851,-0.5878,-0.5877,-0.5815,-0.5809,-0.5803,-0.5772,-0.5779,-0.5776,-0.5774,-0.5695,-0.5694,-0.5694,0,0,0,0,0,0,-0.602,-0.6012,-0.5935,-0.5967,-0.5956,-0.5923,-0.5905,-0.5899,-0.5886,-0.585,-0.5844,-0.5871,-0.5815,-0.5807,-0.5777,-0.5769,-0.5775,-0.5772,-0.5695,-0.5695,-0.5694,-0.571,0,0,0,0,0,0,-0.6023,-0.6013,-0.6004,-0.5967,-0.5955,-0.5911,-0.5905,-0.5898,-0.5881,-0.5879,-0.5841,-0.5835,-0.5815,-0.5781,-0.5774,-0.5765,-0.577,-0.5696,-0.5695,-0.5694,-0.571,-0.5711,-0.5711,0,0,0,0,0,-0.6027,-0.601,-0.6004,-0.5995,-0.5943,-0.591,-0.5903,-0.5881,-0.588,-0.5871,-0.5848,-0.5836,-0.5772,-0.5778,-0.577,-0.576,-0.5696,-0.5695,-0.5694,-0.571,-0.5711,-0.5711,0,0,0,0,0,0,-0.6046,-0.6005,-0.5997,-0.5968,-0.5943,-0.5906,-0.5893,-0.5882,-0.5856,-0.5855,-0.5828,-0.582,-0.5791,-0.5773,-0.5781,-0.5735,-0.5733,-0.573,-0.5748,-0.5748,-0.5748,-0.5753,-0.5767,0,0,0,0,0,-0.6048,-0.6025,-0.599,-0.5968,-0.5956,-0.5927,-0.5912,-0.5897,-0.5869,-0.5858,-0.5833,-0.5806,-0.578,-0.5763,-0.5737,-0.5708,-0.5699,-0.5697,-0.5697,-0.5698,-0.5695,-0.5679,-0.5677,-0.5691,-0.5691,-0.5691,0,0,-0.6049,-0.6024,-0.6011,-0.5971,-0.595,-0.5926,-0.5918,-0.5893,-0.5876,-0.5854,-0.5824,-0.5805,-0.5773,-0.5743,-0.5729,-0.5727,-0.569,-0.5696,-0.5697,-0.5694,-0.5678,-0.5676,-0.5675,-0.5691,-0.5691,-0.5691,0,0,-0.604,-0.6019,-0.5998,-0.5978,-0.5946,-0.5927,-0.5922,-0.5887,-0.5874,-0.5843,-0.5827,-0.5805,-0.576,-0.5738,-0.5721,-0.5705,-0.5693,-0.5697,-0.5697,-0.5681,-0.568,-0.5679,-0.5673,-0.5671,-0.5695,-0.5695,-0.5695,0,-0.6046,-0.6011,-0.5989,-0.5966,-0.5948,-0.5929,-0.5907,-0.5888,-0.5849,-0.5837,-0.5836,-0.578,-0.5757,-0.5722,-0.5718,-0.5705,-0.5698,-0.5701,-0.5682,-0.5681,-0.5679,-0.5673,-0.5671,-0.5696,-0.5696,-0.5695,-0.5695,0,-0.602,-0.5996,-0.5982,-0.5947,-0.5928,-0.5905,-0.5879,-0.5863,-0.585,-0.5831,-0.58,-0.5772,-0.574,-0.5731,-0.5717,-0.5694,-0.5694,-0.5688,-0.5685,-0.5679,-0.5673,-0.567,-0.5697,-0.5696,-0.5696,-0.5696,0,0,-0.602,-0.5973,-0.5969,-0.5952,-0.5916,-0.5897,-0.5874,-0.5843,-0.5829,-0.5803,-0.5783,-0.5746,-0.574,-0.5721,-0.5705,-0.5691,-0.5679,-0.5686,-0.5685,-0.5686,-0.5651,-0.5656,-0.5653,-0.5672,-0.5671,-0.5671,-0.5654,0,-0.6006,-0.5965,-0.5944,-0.5911,-0.5889,-0.587,-0.585,-0.5825,-0.5807,-0.5785,-0.5764,-0.5738,-0.5733,-0.5721,-0.5707,-0.5684,-0.5672,-0.5685,-0.5651,-0.565,-0.566,-0.565,-0.5654,-0.564,-0.5651,-0.5651,-0.565,0,-0.5984,-0.596,-0.5925,-0.5892,-0.5881,-0.5863,-0.5834,-0.5813,-0.5785,-0.5772,-0.5751,-0.5736,-0.571,-0.571,-0.5674,-0.5683,-0.5668,-0.5655,-0.5654,-0.5649,-0.565,-0.5645,-0.5635,-0.5632,-0.5646,-0.5647,-0.5647,0,-0.5988,-0.5946,-0.5919,-0.5906,-0.5867,-0.5855,-0.5838,-0.581,-0.5793,-0.5767,-0.5755,-0.5727,-0.5711,-0.5688,-0.5665,-0.5667,-0.5631,-0.5629,-0.562,-0.562,-0.5612,-0.5613,-0.5599,-0.5604,-0.5604,-0.5604,-0.5604,0,-0.5974,-0.5954,-0.5921,-0.5904,-0.588,-0.5857,-0.5834,-0.5815,-0.5791,-0.577,-0.5752,-0.5733,-0.5704,-0.5681,-0.5663,-0.5636,-0.5629,-0.5617,-0.5613,-0.5619,-0.562,-0.5608,-0.5608,-0.5603,-0.5603,-0.5603,-0.5603,0,-0.5974,-0.5952,-0.5921,-0.5887,-0.5878,-0.5862,-0.5832,-0.5816,-0.5797,-0.5771,-0.5763,-0.5734,-0.5706,-0.5681,-0.5644,-0.5631,-0.5603,-0.5598,-0.5613,-0.561,-0.5602,-0.5603,-0.558,-0.5575,-0.5583,-0.5583,-0.5583,0,-0.5967,-0.595,-0.5915,-0.59,-0.5884,-0.586,-0.5843,-0.582,-0.5803,-0.5769,-0.5756,-0.5727,-0.5703,-0.5659,-0.5633,-0.5605,-0.5598,-0.5592,-0.5594,-0.56,-0.5597,-0.5599,-0.5597,-0.5592,-0.5592,-0.5592,-0.5592,0,-0.5956,-0.5946,-0.5922,-0.5895,-0.5875,-0.5852,-0.5828,-0.5817,-0.5789,-0.5771,-0.5742,-0.5724,-0.5686,-0.5657,-0.5626,-0.5607,-0.5595,-0.5592,-0.5588,-0.5594,-0.5603,-0.5597,-0.5613,-0.5592,-0.5592,-0.5592,-0.5592,-0.5592,-0.5951,-0.5936,-0.5909,-0.5883,-0.5863,-0.5842,-0.5825,-0.5804,-0.578,-0.5749,-0.5736,-0.5707,-0.5679,-0.5636,-0.5618,-0.5594,-0.5592,-0.5586,-0.5585,-0.5584,-0.5585,-0.5607,-0.5588,-0.5588,-0.5588,-0.5588,-0.5588,0,-0.5939,-0.5921,-0.5898,-0.5866,-0.5846,-0.5837,-0.581,-0.5794,-0.5769,-0.5744,-0.5721,-0.5688,-0.566,-0.5633,-0.5604,-0.559,-0.5583,-0.5583,-0.5583,-0.5579,-0.5589,-0.5595,-0.5589,-0.5589,-0.5589,-0.5589,-0.5589,-0.5589,-0.593,-0.5904,-0.5891,-0.5854,-0.5836,-0.5808,-0.5794,-0.5774,-0.5754,-0.5719,-0.5696,-0.5679,-0.5653,-0.5621,-0.5595,-0.5588,-0.5577,-0.5579,-0.557,-0.5579,-0.5579,-0.5579,-0.5585,-0.5577,-0.5577,-0.5562,-0.5562,-0.5562]}]]